CW5066 Weather Reports


time (UTC)temp
C
wind
direction
speed
KPH
gust
KPH
rain 1hr
cm
rain 24hr
cm
rain mn
cm
humidity
%
barometer
mb
20260504043516 6 270 4.8 6.4 0.00 0.00 0.00 42 1017.8
20260504042515 6 270 4.8 6.4 0.00 0.00 0.00 42 1017.2
20260504041515 6 270 4.8 6.4 0.00 0.00 0.00 42 1017.3
20260504040515 6 248 4.8 11.3 0.00 0.00 0.00 43 1017.3
20260504035535 6 203 4.8 8.0 0.00 0.00 0.00 43 1017.4
20260504034515 6 203 1.6 4.8 0.00 0.00 0.00 42 1017.4
20260504033515 6 203 3.2 6.4 0.00 0.00 0.00 45 1017.5
20260504032515 6 0.0 3.2 0.00 0.00 0.00 44 1015.7
20260504031517 6 270 3.2 4.8 0.00 0.00 0.00 46 1016.3
20260504030517 6 293 1.6 4.8 0.00 0.00 0.00 46 1016.3
20260504025517 6 0 4.8 12.9 0.00 0.00 0.00 47 1015.7
20260504024517 6 0 4.8 12.9 0.00 0.00 0.00 47 1015.5
20260504023517 6 0 4.8 9.7 0.00 0.00 0.00 47 1015.6
20260504022517 6 0 8.0 14.5 0.00 0.00 0.00 46 1015.5
20260504021537 6 0 4.8 9.7 0.00 0.00 0.00 46 1015.2
20260504020517 6 0 6.4 16.1 0.00 0.00 0.00 46 1015.2
20260504015517 6 0 11.3 24.1 0.00 0.00 0.00 47 1015.4
20260504014517 7 0 14.5 24.1 0.00 0.00 0.00 44 1016.2
20260504013517 7 0 8.0 16.1 0.00 0.00 0.00 39 1015.9
20260504012517 8 0 3.2 12.9 0.00 0.00 0.00 38 1016.3
20260504011537 8 0 3.2 11.3 0.00 0.00 0.00 37 1016.2
20260504010517 9 0 4.8 11.3 0.00 0.00 0.00 35 1016.7
20260504005517 10 0 6.4 24.1 0.00 0.00 0.00 33 1017.1
20260504004537 10 0 6.4 16.1 0.00 0.00 0.00 32 1017.2
20260504003516 11 90 11.3 43.5 0.00 0.00 0.00 31 1017.0
20260504002517 11 0 8.0 19.3 0.00 0.00 0.00 31 1017.7
20260504001516 11 0 6.4 20.9 0.00 0.00 0.00 30 1018.0
20260504000517 11 90 4.8 16.1 0.00 0.00 0.00 31 1017.3
20260503235516 10 0 6.4 16.1 0.00 0.00 0.00 32 1016.7
20260503234517 9 0 6.4 17.7 0.00 0.00 0.00 33 1016.9
20260503233517 9 0 9.7 24.1 0.00 0.00 0.00 32 1016.8
20260503232516 10 0 11.3 24.1 0.00 0.00 0.00 31 1017.5
20260503231516 10 0 11.3 27.4 0.00 0.00 0.00 33 1017.5
20260503230516 10 0 14.5 32.2 0.00 0.00 0.00 35 1017.5
20260503225516 11 0 11.3 27.4 0.00 0.00 0.00 29 1017.9
20260503224516 11 0 11.3 27.4 0.00 0.00 0.00 27 1017.7
20260503223516 11 0 11.3 20.9 0.00 0.00 0.00 25 1017.1
20260503222516 11 0 9.7 25.7 0.00 0.00 0.00 25 1017.1
20260503221516 11 0 12.9 24.1 0.00 0.00 0.00 27 1017.3
20260503220516 11 0 9.7 24.1 0.00 0.00 0.00 29 1017.4
20260503215516 10 0 11.3 20.9 0.00 0.00 0.00 27 1017.3
20260503214516 11 68 6.4 17.7 0.00 0.00 0.00 32 1018.3
20260503213516 10 90 11.3 22.5 0.00 0.00 0.00 31 1017.9
20260503212516 11 45 4.8 12.9 0.00 0.00 0.00 28 1017.9
20260503211516 10 68 9.7 24.1 0.00 0.00 0.00 33 1018.0
20260503210516 9 0 9.7 19.3 0.00 0.00 0.00 32 1017.6
20260503205516 9 113 4.8 11.3 0.00 0.00 0.00 32 1017.6
20260503204516 10 90 8.0 24.1 0.00 0.00 0.00 31 1018.3
20260503203516 10 68 8.0 19.3 0.00 0.00 0.00 30 1018.5
20260503202516 10 135 8.0 20.9 0.00 0.00 0.00 30 1018.5
20260503201517 10 90 6.4 19.3 0.00 0.00 0.00 28 1019.4
20260503200516 10 68 9.7 20.9 0.00 0.00 0.00 28 1019.4
20260503195516 10 0 4.8 19.3 0.00 0.00 0.00 29 1019.0
20260503194516 10 0 11.3 32.2 0.00 0.00 0.00 28 1018.9
20260503193516 10 0 11.3 27.4 0.00 0.00 0.00 28 1019.1
20260503192516 11 0 6.4 16.1 0.00 0.00 0.00 27 1019.6
20260503191536 11 68 9.7 24.1 0.00 0.00 0.00 27 1020.4
20260503190516 11 0 3.2 14.5 0.00 0.00 0.00 26 1020.5
20260503185536 11 0 4.8 16.1 0.00 0.00 0.00 27 1020.6
20260503184516 12 0 12.9 25.7 0.00 0.00 0.00 23 1021.3
20260503183536 11 68 14.5 29.0 0.00 0.00 0.00 25 1020.7
20260503182516 10 0 17.7 38.6 0.00 0.00 0.00 23 1020.2
20260503181516 10 0 16.1 30.6 0.00 0.00 0.00 25 1020.2
20260503180515 11 0 11.3 29.0 0.00 0.00 0.00 24 1021.2
20260503175516 10 0 9.7 22.5 0.00 0.00 0.00 27 1020.9
20260503174515 10 0 11.3 24.1 0.00 0.00 0.00 25 1021.1
20260503173516 10 0 11.3 25.7 0.00 0.00 0.00 29 1021.5
20260503172515 9 0 8.0 20.9 0.00 0.00 0.00 30 1021.5
20260503171516 8 0 9.7 22.5 0.00 0.00 0.00 31 1021.1
20260503170516 8 0 9.7 22.5 0.00 0.00 0.00 31 1021.0
20260503150517 5 113 8.0 14.5 0.00 0.00 0.00 39 1020.8
20260503130517 3 0.0 4.8 0.00 0.00 0.00 41 1023.2
20260503110536 5 315 6.4 19.3 0.00 0.00 0.00 38 1024.2
20260503081516 5 0.0 3.2 0.00 0.00 0.00 42 1024.8
20260503080536 5 0.0 3.2 0.00 0.00 0.00 42 1025.1
20260503072516 5 45 3.2 4.8 0.00 0.00 0.00 40 1024.9
20260503071516 5 45 3.2 6.4 0.00 0.00 0.00 40 1025.1
20260503070536 5 45 3.2 6.4 0.00 0.00 0.00 40 1025.1
20260503054516 6 45 4.8 9.7 0.00 0.00 0.00 36 1025.4
20260503053516 6 23 3.2 4.8 0.00 0.00 0.00 32 1025.3
20260503052516 6 45 3.2 6.4 0.00 0.00 0.00 31 1025.3
20260503051516 6 0.0 3.2 0.00 0.00 0.00 21 1023.8
20260503050516 6 0.0 3.2 0.00 0.00 0.00 20 1023.7
20260503045516 5 158 1.6 3.2 0.00 0.00 0.00 22 1023.9
20260503044516 5 158 4.8 6.4 0.00 0.00 0.00 22 1022.6